sat.trackr.live / text

‹ back to catalog

ICEYE-X2

NORAD 43800 · 2018-099AU

PAYLOAD ACTIVE UNKNOWN

§ Identity

Operator
Country
FIN
Launch date
2018-12-03
Launch site
AFWTR
Launch vehicle
Mass (kg)
RCS (m²)

External: N2YO · Heavens-Above · Gunter

§ Orbital elements

Epoch: 2026-09-20T04:20:01.572000Z

Period
94.81 min
Inclination
97.4262°
Eccentricity
0.0009134
Mean motion
15.18811674 rev/d
Perigee alt
503.1 km
Apogee alt
515.7 km
Semi-major
6,887.6 km
B*
2.4284e-4
RAAN
315.3617°
Arg perigee
340.3972°
Mean anomaly
19.6910°
Rev number
42,723

§ Raw data

ICEYE-X21 43800U 18099AU  26263.18057375  .00004991  00000+0  24284-3 0  99922 43800  97.4262 315.3617 0009134 340.3972  19.6910 15.18811674427234

JSON: /api/v1/satellites/43800 · /tle

For live sub-satellite position, see the globe view (requires WebGL).

§ Visibility from observer

Set your observer location to see the next 7 days of passes ≥ 10°. The values pass through the URL so the page stays shareable.

No JS? Fill the form by hand. The geolocation button needs JavaScript.

§ Radio — SatNOGS DB

ModeDescriptionDownlinkUplink
BPSK S-band telemetry 2.264 GHz

1 transmitter · refreshed weekly from db.satnogs.org